MEASAT 3D

Last updated on Fri Aug 14 2026 00:03:07 GMT+0000 (Coordinated Universal Time)

1 52904U 22067B 26225.12614131 .00000000 00000+0 00000+0 0 9991 2 52904 0.0192 333.1221 0000270 270.8690 214.5130 1.00268700 15220
UTC large
Height (km)
Speed (km/s)
/
Latitude / Longitude
Inclination (degrees)
Orbital Period (minutes)
Azimuth
Elevation
Range (km)
Doppler Factor

Next 0 passes for location: London (51.5072 / 0.1276)

No passes found over London.
MEASAT 3D